Regional Weather Roundup
Issued by NWS Spokane, WA

Home | Current Version | Previous Version | Text Only | Print | Product List | Glossary On
Versions: 1 2 3 4 5 6 7 8 9 10 11 12 13 14 15 16 17 18 19 20 21 22 23 24 25 26 27 28 29 30 31 32 33 34 35 36 37 38 39 40 41 42 43 44 45 46 47 48 49 50
000
NZUS01 KOTX 212310
RWROTX
EASTERN WASHINGTON/NORTHERN IDAHO ROUNDUP
NATIONAL WEATHER SERVICE, SPOKANE WA
300 PM PST SUN DEC 21 2014

Note: "fair" indicated few or no clouds below 12,000 feet with no
significant weather and/or obstructions to visibility.

...NORTHEAST WASHINGTON AND NORTHERN IDAHO PANHANDLE...

CITY           SKY/WX    TMP DP  RH WIND       PRES   REMARKS
SPOKANE INTL   MOCLDY    47  37  68 W17       29.85R
SPOKANE DOWNTO MOCLDY    50  35  56 W12G23    29.85R
COEUR D ALENE  PTCLDY    45  36  70 W7        29.83R
DEER PARK      MOCLDY    45  36  70 S9        29.85R
SANDPOINT      CLOUDY    46  36  66 SW6       29.80R

...SOUTHEAST WASHINGTON AND SOUTHERN IDAHO PANHANDLE...

CITY           SKY/WX    TMP DP  RH WIND       PRES   REMARKS
WALLA WALLA    CLOUDY    53  42  66 SW12      29.98R
PULLMAN/MOSCOW MOCLDY    46  39  76 W15G23    29.91R
LEWISTON       MOCLDY    52  37  56 W9        29.91R
LOWELL           N/A     45  43  93 CALM      29.89R

...COLUMBIA BASIN...

CITY           SKY/WX    TMP DP  RH WIND       PRES   REMARKS
EPHRATA        CLEAR     53  35  50 W15       29.89R
MOSES LAKE     PTCLDY    53  39  59 SW10      29.91R
TRI CITIES     PTCLDY    55  42  61 S6        29.97R
HERMISTON      CLOUDY    54  42  64 W21G28    30.00R
PENDLETON      CLOUDY    50  40  68 W20       29.98R

...EAST SLOPES CASCADES...

CITY           SKY/WX    TMP DP  RH WIND       PRES   REMARKS
THE DALLES     CLOUDY    52  46  80 E3        30.03R
ELLENSBURG     MOCLDY    50  37  61 NW14      29.92R
WENATCHEE      MOCLDY    50  38  63 NW13      29.90R
OMAK           MOCLDY    50  35  56 S8        29.84R

...SOUTHERN BRITISH COLUMBIA...

CITY           SKY/WX    TMP DP  RH WIND       PRES   REMARKS

...WESTERN MONTANA...

CITY           SKY/WX    TMP DP  RH WIND       PRES   REMARKS
MISSOULA       MOCLDY    38  33  82 NW14      29.78R

...NEIGHBORING CITIES...

CITY           SKY/WX    TMP DP  RH WIND       PRES   REMARKS
SEATTLE        CLOUDY    54  44  69 SW10G23   30.02R



USA.gov is the U.S. government's official web portal to all federal, state and local government web resources and services.